Regional Weather Roundup
Issued by NWS Wilmington, NC

Current Version | Previous Version | Text Only | Print | Product List | Glossary On
Versions: 1 2 3 4 5 6 7 8 9 10 11 12 13 14 15 16 17 18 19 20 21 22 23 24 25 26 27 28 29 30 31 32 33 34 35 36 37 38 39 40 41 42 43 44 45 46 47 48 49 50
000
ASUS42 KILM 200910
RWRILM
RWRILM
REGIONAL HOURLY WEATHER ROUNDUP
NATIONAL WEATHER SERVICE WILMINGTON NC
500 AM EDT MON OCT 20 2014

NOTE: "FAIR" INDICATES FEW OR NO CLOUDS BELOW 12,000 FEET WITH NO
SIGNIFICANT WEATHER AND/OR OBSTRUCTIONS TO VISIBILITY.

...............WFO WILMINGTON COUNTY WARNING AREA...............

......COASTAL NC AND SC COUNTIES......

CITY           SKY/WX    TMP DP  RH WIND       PRES   REMARKS
WILMINGTON     CLEAR     45  43  93 CALM      30.14S
SOUTHPORT      PTCLDY    49  42  76 N5        30.14S
N MYRTLE BEACH CLEAR     47  44  90 CALM      30.14S
MYRTLE BEACH   CLEAR     52  45  76 N5        30.14R

......INLAND NC AND SC COUNTIES.......

CITY           SKY/WX    TMP DP  RH WIND       PRES   REMARKS
LUMBERTON      CLEAR     40  39  97 CALM      30.15R
ELIZABETHTOWN  PTCLDY    46  42  86 SE3       30.14S
WHITEVILLE     CLEAR     44  42  93 CALM      30.14S
FLORENCE       CLEAR     46  43  89 CALM      30.14R
DARLINGTON     CLEAR     43  39  87 CALM      30.15S

....................REST OF NORTH CAROLINA......................

.........EASTERN NC.........

CITY           SKY/WX    TMP DP  RH WIND       PRES   REMARKS
CAPE HATTERAS  CLEAR     48  43  82 CALM      30.14R
JACKSONVILLE   CLEAR     37  36  93 CALM      30.16R
MOREHEAD CITY  CLEAR     46  44  93 CALM      30.15R
KENANSVILLE    CLEAR     38  38 100 CALM      30.16R
NEW BERN       FOG       43  40  89 CALM      30.16R VSB 1/4
ELIZABETH CITY CLEAR     42  39  89 CALM      30.14S

.........CENTRAL NC.........

CITY           SKY/WX    TMP DP  RH WIND       PRES   REMARKS
RALEIGH DURHAM PTCLDY    43  40  89 CALM      30.13S
ROCKY MOUNT    CLEAR     39  37  92 CALM      30.14R
ROANOKE RAPIDS NOT AVBL
FAYETTEVILLE   PTCLDY    45  41  86 S5        30.14R
HOFFMAN        CLEAR     40  39  99 N1        30.16R FOG

.........WESTERN NC.........

CITY           SKY/WX    TMP DP  RH WIND       PRES   REMARKS
CHARLOTTE      CLOUDY    48  43  82 CALM      30.13R
GREENSBORO     PTCLDY    44  40  85 SW3       30.12R
HICKORY        NOT AVBL
BOONE          NOT AVBL
ASHEVILLE      NOT AVBL

.....................REST OF SOUTH CAROLINA.....................

.........EASTERN SC.........

CITY           SKY/WX    TMP DP  RH WIND       PRES   REMARKS
CHARLESTON     PTCLDY    53  50  89 NE3       30.12S
BEAUFORT MCAS  CLEAR     52  50  93 CALM      30.11F
HILTON HEAD    NOT AVBL

.........CENTRAL SC.........

CITY           SKY/WX    TMP DP  RH WIND       PRES   REMARKS
COLUMBIA       CLEAR     45  42  89 CALM      30.12S
ORANGEBURG     CLEAR     47  44  90 CALM      30.13S
SUMTER SHAW    CLEAR     45  44  97 CALM      30.12S

.........WESTERN SC.........

CITY           SKY/WX    TMP DP  RH WIND       PRES   REMARKS
GREENVILLE     NOT AVBL
ROCK HILL      CLEAR     46  43  89 CALM      30.13S
ANDERSON       CLEAR     45  44  97 CALM      30.11S
CLEMSON        NOT AVBL
GREENWOOD      CLEAR     45  42  89 CALM      30.13R


...................COASTAL AND OFFSHORE REPORTS..................

................LOCAL PIERS AND NC RESERVE................


STATION/POSITION TIME  SKY/WX   TEMP    WIND        PRES    VSBY
                                AIR SEA DIR/SP/G
                 (UTC)          (F)     (DEG/KT/KT) (MB)    (MI)
JOHNY MRCER PIER 0900            59 74   10/  8/  9 1019.9R
NC RESRV MASNBRO 0800            52        CALM     1020.0S
OCEAN CREST PIER 0900            53 72  350/  6/  8 1019.5F
SPRINGMAID  PIER 0900            56 71  330/  5/  6 1020.2F


................COASTAL AND OFFSHORE BUOYS................


STATION/POSITION TIME  SKY/WX   TEMP    WIND        PRES    VSBY
                                AIR SEA DIR/SP/G
                 (UTC)          (F)     (DEG/KT/KT) (MB)    (MI)
DIMNDSHOAL 41025 0900            61     320/  6/ 12 1020.4R
WVE H/P(F/S)=  3/11 WND WVE H/P(F/S)=  2/ 4 SWL H/P/D(F/S/D)=  3/ 80/11

CAPE LOOKOUT     0800            60     360/  7/  8 1020.4R
ONSLOW BAY 41036 0900            64 76   80/  6/ 10 1020.2R
WVE H/P(F/S)=  2/10 WND WVE H/P(F/S)=  2/ 3 SWL H/P/D(F/S/D)=  2/110/10

5 WRITEBCH 41038 0800            61 73   70/  6/  8   N/A
MASONBORO  41110 0900               74                N/A
WVE H/P(F/S)=  2/10 WND WVE H/P(F/S)=  2/10

WILM HARBR 41108 0900               73                N/A
WVE H/P(F/S)=  2/12 WND WVE H/P(F/S)=  2/ 9

27WRITEBCH 41037 0800            62 76   70/  6/  8 1020.4R
FRYING PAN 41013 0900            66 75  120/  8/ 12 1020.7F
WVE H/P(F/S)=  2/ 8 WND WVE H/P(F/S)=  2/ 4 SWL H/P/D(F/S/D)=  2/100/ 8

SUNST NRSH 41024 0800            60      40/  4/  6 1020.0F
CAPRS NRSH 41029 0800            67      70/  8/ 10   N/A
EDISTO     41004 0900            70 79  110/  4/  8 1019.0F
WVE H/P(F/S)=  2/11 WND WVE H/P(F/S)=  2/ 4 SWL H/P/D(F/S/D)=  2/11



..........OFFSHORE BUOYS BEYOND 100 NM OFFSHORE...........
.....IN A TRIANGLE---HAT TO BERMUDA TO BAHAMAS TO HAT.....


STATION/POSITION TIME  SKY/WX   TEMP    WIND        PRES    VSBY
                                AIR SEA DIR/SP/G
                 (UTC)          (F)     (DEG/KT/KT) (MB)    (MI)
150E HAT   41001 NOT AVBL
W BERMUDA  41048 0846            73 80  360/ 12/ 16 1016.7R
WVE H/P(F/S)=  8/ 8 WND WVE H/P(F/S)=  3/ 6 SWL H/P/D(F/S/D)=  7/310/ 8

ATLANTIC S 41049 0831            79 81  320/  6/  8 1014.3R
WVE H/P(F/S)=  6/10 SWL H/P/D(F/S/D)=  5/ 40/10

E BAHAMAS  41046 0803            80 83   10/  8/ 10 1013.6F
WVE H/P(F/S)=  4/10 WND WVE H/P(F/S)=  2/ 3 SWL H/P/D(F/S/D)=  3/ 70/10

NE BAHAMAS 41047 0825            79 82  340/  4/  6 1016.0R
WVE H/P(F/S)=  4/ 8 WND WVE H/P(F/S)=  2/ 4 SWL H/P/D(F/S/D)=  3/ 80/ 8

120E CANVRL41010 0900            76 81   50/ 14/ 16 1016.6F
WVE H/P(F/S)=  5/ 7 WND WVE H/P(F/S)=  3/ 5 SWL H/P/D(F/S/D)=  3/ 7


END


USA.gov is the U.S. government's official web portal to all federal, state and local government web resources and services.